Temp
7 7 7 8 8 8 8 9 9 9 10 10 10 9 9 8 9 8 8 8 7 7 7 6 5 4 3 3 2 2 2 2 2 1 2 2 3 4 3 3 3 4 4 4 4
7 7 8 8 8 8 9 9 9 9 9 9 9 9 9 8 8 7 7 7 6 5 6 5 3 3 3 2 2 2 2 3 2 2 2 3 3 3 3 4 4 4 4 3 3
7 7 7 8 8 8 8 9 9 9 9 9 9 9 9 8 8 7 7 6 5 5 5 4 3 3 3 2 2 2 3 2 3 2 2 3 3 2 2 3 2 2 3 4 4
6 7 7 8 8 8 8 8 8 9 9 9 9 8 8 7 6 6 5 4 4 4 4 3 3 3 3 3 2 2 2 2 2 2 1 1 2 3 3 1 0 0 1 1 1
6 6 7 7 7 8 8 8 8 8 9 8 8 8 8 7 6 5 5 4 4 3 4 3 3 3 3 2 1 2 2 1 1 -0 0 -0 0 0 2 -0 1 1 1 -0 -1
6 6 6 7 7 7 8 8 8 8 8 8 7 7 7 6 5 5 4 3 3 3 3 3 2 2 1 1 0 1 0 -0 -0 -1 -1 -2 -1 -1 0 -1 -1 -2 -2 -2 -2
6 6 6 6 7 7 7 7 8 8 8 7 7 6 5 5 4 4 4 3 3 3 3 2 2 1 1 1 0 -1 0 -0 -1 -1 -2 -2 1 0 -0 -2 -2 -2 -2 -2 -3
6 6 5 6 6 7 7 7 7 7 7 7 6 5 4 4 4 4 3 3 3 2 2 1 1 1 0 -0 -1 -1 -1 -1 -0 -1 -1 -3 -2 0 -1 -2 -2 -3 -2 -1 -1
5 5 5 5 6 6 7 7 7 7 7 6 5 4 4 4 3 3 3 3 2 2 1 1 0 -0 -0 -1 -1 -2 -2 -2 -1 -1 -2 -3 -3 -1 -1 -2 -3 -2 -2 -2 -2
5 5 5 5 5 6 6 6 6 7 6 5 4 4 3 3 3 3 2 2 1 1 1 0 -0 -1 -2 -2 -2 -2 -3 -3 -3 -2 -3 -3 -3 -2 -2 -2 -3 -2 -2 -2 -2
5 5 5 5 5 5 6 6 6 6 6 5 4 3 3 3 2 2 1 1 0 -0 0 -2 -2 -3 -3 -3 -2 -3 -3 -3 -3 -3 -3 -3 -3 -2 -2 -2 -2 -3 -3 -3 -2
4 5 5 5 5 5 5 5 6 5 5 4 3 3 3 2 2 1 1 0 0 -1 -3 -3 -2 -3 -3 -2 -2 -3 -4 -4 -4 -4 -4 -3 -3 -3 -2 -2 -3 -3 -3 -3 -3
4 4 4 5 5 5 6 6 6 5 5 3 3 2 2 1 1 1 -0 -1 -1 -1 -2 -3 -2 -3 -2 -2 -3 -3 -4 -4 -4 -4 -4 -4 -4 -3 -2 -3 -3 -3 -4 -4 -4
4 4 4 4 5 5 5 5 5 5 3 2 2 2 1 1 -0 -0 -1 -1 -2 -2 -3 -2 -2 -2 -3 -3 -4 -4 -4 -4 -4 -5 -5 -5 -7 -4 -3 -3 -3 -4 -4 -5 -5
3 4 4 4 4 4 4 4 5 4 -2 2 2 1 1 0 -0 -0 -1 -1 -2 -2 -3 -2 -3 -3 -3 -3 -4 -4 -4 -4 -5 -5 -6 -3 -6 -4 -3 -3 -3 -4 -4 -6 -6
3 3 4 4 4 4 4 4 4 3 -4 1 1 0 0 -0 -1 -1 -2 -2 -3 -3 -3 -3 -3 -3 -3 -3 -4 -5 -5 -5 -5 -5 -10 -5 -6 -5 -3 -4 -3 -4 -6 -6 -5
3 3 3 4 4 4 4 3 3 2 1 0 -0 -1 -1 -1 -2 -3 -2 -3 -4 -4 -4 -3 -3 -3 -4 -4 -4 -5 -6 -9 -9 -10 -11 -5 -6 -4 -4 -4 -5 -5 -6 -6 -6
3 3 3 3 3 3 3 3 3 0 0 -0 -0 -0 -1 -2 -3 -3 -3 -3 -4 -4 -5 -5 -4 -4 -4 -4 -5 -6 -7 -8 -10 -12 -9 -6 -7 -4 -5 -5 -5 -6 -6 -6 -6
3 3 3 3 3 2 2 1 1 -0 -1 -1 -0 -1 -2 -2 -3 -4 -3 -4 -4 -4 -4 -5 -5 -5 -5 -5 -6 -6 -6 -6 -7 -7 -9 -7 -6 -5 -5 -5 -6 -6 -7 -7 -7
2 2 2 2 2 1 1 0 -0 -1 -1 -1 -2 -2 -2 -3 -4 -4 -4 -4 -5 -5 -5 -6 -7 -5 -5 -5 -5 -6 -6 -7 -7 -13 -11 -8 -6 -6 -6 -6 -7 -7 -7 -8 -8
2 2 2 1 1 1 0 -1 -1 -2 -2 -2 -2 -3 -3 -4 -4 -5 -4 -4 -5 -5 -6 -6 -8 -6 -7 -7 -6 -7 -7 -7 -8 -8 -10 -10 -7 -6 -6 -7 -7 -8 -8 -8 -8
1 1 1 0 0 -0 -1 -1 -2 -2 -2 -2 -2 -3 -4 -4 -4 -5 -4 -5 -5 -6 -7 -7 -8 -9 -8 -6 -8 -8 -8 -8 -9 -9 -9 -9 -9 -8 -8 -7 -8 -8 -8 -8 -8
1 1 0 -0 -1 -1 -2 -2 -2 -2 -2 -2 -3 -3 -4 -5 -5 -5 -6 -5 -6 -6 -7 -8 -9 -10 -8 -7 -7 -8 -8 -8 -8 -9 -9 -10 -9 -7 -8 -8 -8 -9 -9 -9 -9
-0 -1 -1 -1 -1 -2 -3 -2 -2 -2 -2 -3 -3 -4 -4 -4 -5 -5 -5 -6 -6 -7 -8 -9 -9 -9 -10 -8 -8 -9 -9 -9 -9 -10 -9 -9 -9 -9 -8 -8 -8 -8 -9 -9 -9
0 -1 -2 -2 -2 -2 -3 -3 -3 -3 -3 -3 -3 -3 -5 -5 -5 -6 -6 -6 -7 -8 -9 -9 -9 -9 -9 -9 -10 -10 -9 -9 -10 -10 -10 -9 -9 -8 -8 -9 -8 -9 -9 -9 -9
-2 -3 -3 -2 -3 -4 -3 -3 -3 -3 -3 -3 -3 -4 -4 -4 -5 -6 -7 -8 -8 -8 -8 -9 -10 -10 -10 -10 -10 -10 -9 -9 -9 -9 -9 -9 -9 -8 -9 -9 -9 -9 -9 -10 -10
-3 -3 -3 -3 -3 -3 -3 -3 -3 -3 -4 -3 -4 -4 -5 -6 -6 -6 -6 -7 -8 -9 -9 -10 -10 -10 -10 -10 -10 -10 -8 -8 -8 -8 -8 -9 -8 -9 -9 -9 -9 -9 -10 -10 -10
Height
3127 3125 3123 3120 3118 3115 3112 3109 3106 3103 3100 3097 3094 3091 3088 3085 3083 3082 3082 3081 3080 3078 3078 3078 3079 3080 3081 3081 3080 3081 3082 3080 3082 3081 3080 3079 3079 3083 3081 3077 3080 3082 3078 3075 3073
3127 3124 3122 3119 3116 3113 3109 3106 3103 3100 3096 3093 3090 3087 3084 3081 3079 3078 3077 3076 3076 3075 3075 3076 3077 3077 3077 3077 3077 3077 3077 3077 3077 3076 3074 3074 3075 3073 3071 3072 3071 3067 3068 3065 3063
3126 3124 3121 3118 3114 3111 3107 3104 3100 3097 3093 3089 3086 3083 3080 3078 3076 3075 3073 3074 3073 3072 3073 3074 3074 3074 3074 3074 3074 3073 3072 3074 3075 3074 3071 3071 3070 3067 3064 3064 3061 3055 3053 3054 3054
3126 3123 3120 3116 3112 3108 3105 3101 3098 3094 3090 3087 3083 3080 3077 3076 3077 3073 3072 3071 3070 3070 3071 3071 3071 3071 3071 3071 3070 3071 3070 3069 3070 3069 3067 3065 3063 3061 3060 3056 3053 3051 3049 3047 3045
3124 3120 3117 3113 3110 3106 3102 3098 3095 3091 3087 3083 3080 3077 3074 3073 3072 3071 3070 3070 3069 3069 3069 3069 3068 3068 3067 3067 3066 3065 3067 3066 3064 3063 3063 3060 3059 3056 3054 3054 3052 3049 3046 3042 3040
3122 3118 3114 3111 3107 3103 3099 3095 3092 3088 3085 3081 3077 3074 3072 3072 3071 3070 3070 3069 3069 3068 3067 3067 3066 3065 3064 3064 3064 3063 3062 3062 3062 3062 3058 3056 3054 3054 3055 3050 3046 3044 3041 3038 3034
3120 3116 3112 3108 3105 3101 3097 3093 3090 3086 3082 3078 3075 3072 3070 3071 3070 3070 3070 3069 3068 3067 3066 3065 3064 3064 3063 3062 3062 3061 3061 3062 3060 3058 3057 3054 3052 3052 3049 3046 3042 3039 3035 3032 3029
3119 3115 3110 3106 3102 3099 3093 3090 3088 3084 3079 3075 3071 3070 3070 3070 3070 3070 3069 3068 3068 3066 3065 3064 3063 3062 3062 3062 3061 3060 3059 3057 3057 3056 3055 3051 3044 3047 3045 3041 3038 3033 3030 3028 3027
3117 3113 3109 3104 3100 3096 3091 3088 3086 3082 3077 3073 3070 3069 3070 3070 3070 3070 3068 3068 3067 3065 3064 3063 3061 3061 3060 3060 3059 3057 3057 3056 3053 3053 3051 3049 3042 3042 3040 3037 3032 3027 3026 3025 3023
3114 3111 3107 3103 3098 3093 3089 3086 3083 3079 3075 3071 3069 3072 3071 3071 3070 3069 3067 3066 3065 3063 3062 3062 3059 3058 3058 3057 3058 3057 3055 3053 3051 3049 3046 3042 3038 3036 3035 3032 3026 3022 3020 3019 3017
3111 3108 3105 3101 3096 3092 3089 3085 3082 3077 3072 3070 3068 3067 3069 3070 3069 3068 3066 3065 3063 3062 3059 3058 3058 3057 3056 3056 3056 3054 3052 3049 3047 3046 3041 3036 3033 3031 3028 3025 3020 3017 3015 3014 3011
3107 3104 3101 3098 3095 3090 3086 3082 3078 3075 3069 3066 3065 3067 3068 3068 3069 3066 3066 3063 3062 3060 3058 3059 3057 3057 3057 3056 3054 3052 3049 3046 3043 3041 3038 3030 3025 3022 3022 3019 3016 3012 3010 3008 3006
3103 3100 3097 3094 3091 3089 3084 3080 3075 3070 3068 3066 3066 3067 3068 3068 3065 3065 3063 3060 3059 3058 3057 3056 3057 3055 3054 3053 3052 3050 3048 3045 3041 3036 3034 3025 3015 3015 3016 3015 3009 3007 3005 3003 3000
3099 3096 3093 3090 3089 3084 3081 3077 3072 3067 3065 3068 3068 3067 3068 3066 3065 3061 3060 3060 3058 3057 3055 3053 3052 3052 3051 3050 3050 3046 3045 3042 3038 3034 3030 3029 3017 3012 3012 3012 3008 3006 3002 2997 2993
3095 3092 3090 3086 3084 3081 3079 3074 3070 3066 3066 3069 3067 3066 3065 3065 3063 3061 3058 3056 3056 3055 3054 3054 3051 3049 3047 3048 3046 3044 3042 3038 3034 3031 3029 3020 3020 3007 3009 3010 3006 3004 2999 2992 2987
3091 3088 3086 3084 3081 3078 3075 3071 3068 3067 3067 3067 3066 3064 3062 3059 3057 3056 3056 3055 3053 3050 3050 3049 3048 3046 3045 3045 3044 3041 3037 3032 3026 3026 3029 3022 3021 3007 3006 3007 3005 3002 2992 2987 2984
3086 3084 3082 3079 3078 3075 3072 3069 3068 3063 3068 3067 3064 3061 3059 3057 3055 3054 3053 3051 3052 3049 3046 3046 3042 3042 3041 3041 3041 3040 3038 3032 3029 3027 3024 3016 3015 3007 3005 3004 3000 2994 2991 2987 2982
3081 3079 3076 3076 3072 3071 3069 3068 3066 3065 3064 3064 3061 3059 3057 3056 3054 3053 3051 3049 3048 3047 3045 3043 3040 3040 3040 3040 3039 3038 3038 3038 3039 3031 3016 3016 3009 3005 3001 2999 2996 2993 2989 2984 2978
3075 3073 3072 3070 3068 3066 3067 3066 3063 3063 3063 3061 3059 3055 3055 3054 3054 3050 3048 3046 3045 3045 3047 3042 3039 3037 3037 3036 3038 3036 3035 3035 3030 3025 3018 3006 3002 3000 2997 2996 2992 2989 2983 2977 2972
3069 3068 3067 3064 3064 3063 3062 3061 3061 3060 3059 3057 3057 3055 3053 3052 3050 3048 3045 3043 3042 3042 3042 3039 3036 3033 3033 3032 3033 3032 3033 3031 3030 3031 3021 3003 2998 2994 2994 2991 2988 2985 2979 2973 2968
3063 3061 3061 3059 3059 3058 3058 3057 3057 3057 3056 3056 3054 3053 3052 3049 3047 3046 3043 3042 3038 3037 3037 3037 3034 3031 3030 3027 3028 3029 3027 3028 3027 3024 3018 3006 2991 2989 2987 2988 2985 2981 2975 2970 2965
3055 3056 3055 3054 3055 3052 3053 3053 3054 3052 3053 3051 3050 3048 3047 3046 3043 3041 3038 3038 3035 3034 3033 3033 3029 3024 3023 3021 3022 3023 3023 3023 3022 3017 3013 3007 2977 2982 2984 2984 2981 2976 2970 2965 2959
3048 3048 3048 3049 3048 3047 3047 3049 3049 3049 3048 3047 3045 3043 3041 3040 3041 3035 3033 3033 3032 3032 3031 3029 3025 3021 3017 3018 3017 3018 3019 3018 3017 3012 3000 3005 2980 2979 2981 2977 2974 2969 2963 2960 2956
3041 3042 3041 3042 3042 3042 3043 3043 3044 3044 3043 3042 3040 3038 3037 3034 3033 3030 3028 3028 3027 3027 3027 3024 3018 3017 3015 3014 3016 3013 3012 3011 3011 3003 2990 2983 2975 2977 2974 2971 2967 2963 2960 2956 2952
3032 3033 3035 3036 3036 3037 3038 3037 3038 3039 3037 3036 3034 3033 3031 3029 3026 3023 3023 3023 3022 3022 3022 3019 3011 3010 3008 3007 3006 3002 2999 2998 2995 2990 2989 2970 2975 2971 2969 2965 2961 2957 2956 2953 2948
3023 3027 3027 3028 3029 3030 3030 3030 3031 3032 3032 3031 3029 3026 3024 3022 3021 3018 3017 3017 3015 3015 3016 3014 3005 3004 2999 3000 2998 2992 2985 2983 2981 2977 2974 2971 2965 2967 2963 2959 2955 2953 2951 2949 2944
3015 3018 3020 3019 3021 3023 3022 3022 3023 3024 3023 3021 3022 3020 3018 3016 3013 3010 3009 3007 3007 3006 3006 3006 3003 3001 2990 2992 2991 2983 2975 2974 2973 2971 2968 2965 2963 2960 2957 2954 2950 2947 2946 2943 2940
Wind_Speed
19 20 20 21 21 21 21 21 22 22 23 23 22 21 20 19 20 20 17 15 10 10 9 10 8 7 8 11 12 12 13 12 9 10 16 22 25 22 28 35 34 33 38 41 43
19 19 20 21 21 22 22 22 22 23 23 24 23 22 20 19 20 16 15 8 7 7 8 7 7 9 12 8 8 10 14 11 14 17 23 25 26 30 29 25 22 27 26 32 40
20 20 20 20 21 22 22 22 22 22 23 23 23 20 18 18 17 11 8 8 6 6 1 3 6 9 9 10 11 12 14 13 10 19 24 22 20 21 23 23 27 32 33 34 33
21 22 22 22 22 23 23 23 23 22 23 23 20 18 19 15 8 9 8 8 6 6 5 6 8 9 9 7 8 10 9 10 9 13 15 15 18 23 23 29 32 32 34 35 32
21 22 23 23 23 23 24 24 24 24 24 23 20 19 18 11 7 7 3 4 7 7 7 7 8 9 7 8 8 9 6 10 10 9 11 19 22 26 29 29 31 30 30 30 29
22 23 24 24 24 24 23 25 25 25 25 23 20 20 15 8 4 2 4 6 8 7 7 8 8 8 8 6 8 9 11 5 6 11 18 22 27 25 24 27 28 25 26 27 28
23 24 23 23 24 24 23 25 25 25 25 20 21 15 9 4 3 5 8 9 6 8 8 7 6 7 6 6 6 8 5 0 5 14 19 20 25 21 25 24 21 22 21 25 28
24 25 23 22 22 23 23 25 25 26 23 23 20 11 3 2 6 8 10 7 8 8 7 5 7 6 4 3 5 4 5 11 11 20 16 18 28 24 24 19 22 21 27 29 27
24 26 24 23 23 24 24 25 26 27 22 25 17 7 1 3 7 11 12 7 9 9 5 6 9 4 2 3 5 6 7 18 23 15 15 17 29 27 23 18 22 29 33 28 28
23 25 23 23 23 23 23 25 26 25 25 22 10 2 2 5 9 15 10 10 9 9 5 7 10 5 3 7 6 10 19 21 22 22 20 26 32 30 22 18 30 34 32 29 30
23 24 23 22 23 23 22 24 28 24 27 21 11 1 2 7 11 19 8 16 9 9 8 12 11 10 2 6 14 18 19 22 24 23 26 31 31 34 16 23 28 32 29 28 30
23 24 23 22 22 24 24 24 23 25 24 16 3 2 3 10 14 12 16 16 10 8 6 10 12 4 10 15 20 18 19 24 24 23 27 34 39 32 21 21 24 31 33 27 26
23 23 24 23 23 23 24 25 24 24 20 6 3 7 8 13 21 11 20 16 11 10 5 12 9 16 20 18 19 17 19 23 27 31 32 31 27 10 10 11 25 27 23 25 32
23 23 23 24 23 25 24 24 24 25 4 5 4 6 10 17 10 21 16 13 11 9 13 8 7 9 12 16 15 21 16 23 26 25 13 29 9 30 15 16 21 21 26 26 26
21 23 23 22 24 24 24 24 23 13 3 4 10 10 18 20 21 14 14 11 11 14 15 6 11 14 19 17 17 20 20 23 26 26 27 26 12 5 17 11 16 17 22 16 21
21 22 23 22 24 25 24 22 20 4 1 7 8 18 23 25 16 16 14 10 16 10 10 9 8 14 14 15 13 15 21 27 19 16 4 7 10 8 9 17 23 26 10 16 27
22 20 21 21 23 24 22 20 7 4 6 5 15 23 24 14 13 15 16 16 12 8 4 19 10 10 16 17 14 13 15 7 6 2 6 8 16 17 18 21 19 11 14 21 28
22 18 21 23 22 21 19 16 2 1 5 13 18 20 11 12 10 11 18 16 4 9 18 8 5 3 8 11 12 21 9 3 5 3 6 32 9 4 11 7 13 22 27 30 34
21 20 19 22 22 17 16 5 1 3 11 15 13 9 7 7 12 13 11 11 10 9 6 6 7 9 14 14 16 3 9 9 17 22 8 8 11 17 20 25 28 29 29 32 33
20 22 20 21 17 18 12 5 3 9 8 13 9 6 8 15 14 11 10 7 8 12 11 9 12 13 14 17 12 15 12 7 3 3 5 7 14 19 21 22 33 27 34 30 34
21 21 20 14 18 14 8 6 6 7 12 13 11 12 13 15 14 14 8 9 15 17 15 13 12 7 10 12 15 11 15 12 13 12 3 5 6 9 18 23 35 34 29 30 34
22 20 16 18 13 11 9 8 8 10 11 12 13 11 12 11 16 14 12 12 15 14 17 18 12 11 22 12 17 22 19 14 10 11 17 14 38 38 9 34 37 37 31 39 36
24 21 19 11 10 11 11 10 12 11 15 15 13 15 15 16 9 12 16 15 16 15 8 10 9 9 9 3 7 11 13 15 22 33 36 12 19 27 48 42 37 37 29 26 27
23 16 15 18 15 12 10 14 6 11 13 15 19 15 13 18 16 12 19 14 18 20 19 18 20 23 16 24 27 29 33 32 30 25 36 38 45 45 46 42 34 25 24 24 29
26 21 20 13 11 12 15 13 18 16 18 14 18 16 16 16 19 18 13 16 21 20 21 21 29 29 30 28 30 34 36 38 41 45 39 54 47 45 38 30 29 27 22 25 31
26 22 21 23 18 14 17 20 18 21 17 18 18 17 20 21 18 22 22 24 27 23 23 28 32 28 30 31 34 40 39 38 39 41 45 44 46 30 26 27 27 20 26 24 28
25 23 23 24 23 19 22 21 24 22 18 14 19 19 23 19 21 25 26 28 28 31 28 28 28 25 19 14 16 22 26 10 17 19 24 32 22 22 28 34 28 25 23 27 28
Wind_Direction
0 357 354 350 343 338 333 329 326 324 325 323 317 311 305 298 292 289 291 287 278 272 276 273 255 250 255 274 248 239 236 251 256 251 252 256 266 268 270 273 280 278 269 269 267
358 356 353 351 346 341 335 329 324 322 322 319 318 314 308 300 296 296 294 293 315 285 286 269 236 260 281 245 248 242 241 255 233 248 265 278 283 292 290 291 293 282 270 265 262
350 349 348 347 345 342 341 337 333 329 326 324 323 319 314 307 299 300 295 311 317 323 313 234 253 271 272 260 258 264 267 266 255 261 272 291 294 299 306 317 315 314 307 301 295
345 343 342 342 341 341 341 340 336 332 329 328 328 325 318 310 297 300 311 323 344 337 322 301 297 294 290 279 263 269 279 287 298 291 304 313 316 315 318 326 320 315 310 309 307
344 341 340 339 337 338 339 339 338 334 332 333 329 326 321 315 292 313 328 348 333 327 316 309 301 305 299 300 298 299 311 321 327 337 324 321 322 326 333 316 305 308 313 315 306
346 343 340 338 337 337 339 340 337 335 336 335 333 330 325 322 306 16 3 339 320 319 319 318 310 305 302 308 297 310 328 357 5 344 326 321 317 317 318 317 320 328 332 331 321
346 344 339 339 337 337 341 342 340 337 338 340 339 332 323 342 58 14 349 329 333 327 329 322 318 316 314 312 313 310 320 129 317 332 314 297 302 323 326 322 330 330 312 309 313
345 343 340 339 339 338 344 343 340 340 342 342 343 334 314 80 13 4 349 339 337 333 333 341 342 326 311 343 328 336 313 328 301 318 316 319 309 331 326 323 322 295 299 311 320
342 344 341 339 342 343 345 341 338 340 341 342 346 350 155 43 11 354 345 345 341 336 324 352 355 348 13 1 59 325 296 299 313 332 328 317 301 317 329 319 300 296 308 314 322
339 343 342 340 342 345 345 339 338 340 342 341 337 344 180 17 354 349 344 342 336 335 324 326 6 10 3 351 334 302 303 306 313 329 323 303 296 310 320 302 305 294 297 311 318
335 339 338 340 340 342 342 339 336 338 336 333 325 206 164 352 348 345 351 337 331 334 347 350 342 335 289 306 308 309 304 309 320 327 303 294 294 309 303 298 299 282 287 295 306
329 333 335 337 339 339 342 338 339 335 334 336 13 68 303 330 337 335 338 335 331 341 334 309 313 293 297 284 296 307 310 308 310 311 300 301 302 304 295 292 299 283 288 289 299
324 329 331 333 335 335 337 340 339 338 332 2 88 1 322 328 331 342 333 331 329 330 296 277 269 284 290 294 307 306 305 306 299 302 298 308 317 7 346 316 295 279 285 303 307
322 323 328 329 329 336 339 342 342 339 1 68 21 356 345 334 336 329 330 324 329 317 310 306 295 286 281 294 312 299 298 299 303 312 309 309 284 299 341 319 290 272 299 307 314
318 321 322 327 329 334 338 342 341 337 37 9 350 344 335 329 323 334 328 320 317 308 292 302 282 286 290 303 298 292 308 305 304 297 302 312 268 292 314 309 298 305 304 304 308
314 320 321 324 327 332 336 342 340 343 316 333 335 333 330 329 330 331 332 319 320 309 295 301 279 274 295 296 311 308 302 304 303 282 266 358 338 298 300 314 318 310 276 289 301
309 316 318 322 327 328 333 343 338 68 332 317 327 329 325 331 329 313 317 318 322 309 289 310 308 275 272 283 291 307 307 321 345 9 221 320 335 280 313 322 319 288 292 299 305
304 314 318 322 325 325 330 341 273 272 322 320 322 322 318 340 315 311 310 314 301 251 274 309 313 280 263 269 287 310 290 220 267 272 280 300 245 263 332 352 333 326 322 315 315
299 306 313 318 319 323 325 326 269 322 318 325 329 323 328 314 309 307 312 304 274 271 262 278 260 243 257 271 285 248 260 286 266 279 294 251 254 256 266 306 324 334 322 324 324
295 303 310 314 313 318 316 288 237 324 323 341 339 307 296 309 311 309 317 281 269 264 277 272 278 284 265 269 274 264 287 256 235 327 287 275 280 271 294 318 324 330 323 322 319
291 298 307 303 311 304 289 241 258 325 335 335 329 308 308 302 293 294 267 275 271 278 287 282 263 254 254 260 291 257 252 249 255 243 251 292 245 231 286 315 322 318 311 312 316
287 292 295 301 293 290 272 244 269 315 339 341 331 323 309 293 296 290 267 274 275 275 286 290 281 266 281 304 277 257 272 248 240 271 260 273 282 289 276 310 314 308 307 316 313
285 290 294 286 288 277 255 238 296 293 319 328 327 324 318 301 287 275 282 290 276 279 279 289 260 300 315 226 241 244 253 272 288 290 270 256 258 276 301 313 321 313 311 315 306
278 277 276 287 282 258 214 274 265 309 307 317 322 316 308 304 293 277 285 286 285 288 288 291 265 251 246 277 287 279 281 281 282 270 278 263 280 293 302 310 314 314 317 317 303
271 275 278 270 267 235 275 267 290 306 302 296 316 316 301 298 303 291 285 276 274 277 264 259 263 273 280 282 281 277 279 283 278 272 263 279 284 298 308 310 311 319 313 297 295
262 268 276 276 270 254 260 273 284 296 303 298 304 310 301 299 299 291 290 280 281 278 262 260 272 277 277 283 283 287 283 282 282 279 274 280 287 306 305 309 307 302 304 287 291
262 269 271 268 268 265 269 279 284 292 292 289 307 306 301 311 295 300 296 291 283 277 271 272 272 284 293 305 294 290 292 288 301 297 289 278 293 295 299 306 299 295 299 298 295